CAPE
0 0 0 0 0 0 0 0 0 0 0 0 0 0 0 0 0 0 0 0 0 0 0 0 0 0 0 0 0 0 0 0 0 0 0 0 0 1 0 0 0 0 0
0 0 0 0 0 0 0 0 0 0 0 0 0 0 0 0 0 0 0 0 0 0 0 0 0 0 0 0 0 0 0 0 0 0 0 0 0 0 0 0 0 0 0
0 0 0 0 0 0 0 0 0 0 0 0 0 0 0 0 0 0 0 0 0 0 0 0 0 0 0 0 0 0 0 0 0 0 0 0 0 0 0 0 0 0 0
0 0 0 0 0 0 0 0 0 0 0 0 0 0 0 0 0 0 0 0 0 0 0 0 0 0 0 0 0 0 0 0 0 0 0 0 0 0 0 0 0 0 0
0 0 0 0 0 0 0 0 0 0 0 0 0 0 0 0 0 0 0 0 0 0 0 0 0 0 0 0 0 0 0 0 0 0 0 0 0 0 0 0 0 0 0
0 0 0 0 0 0 0 0 0 0 0 0 0 0 0 0 0 0 0 0 0 0 0 0 0 0 0 0 0 0 0 0 0 0 0 0 0 0 0 0 0 0 0
0 0 0 0 0 0 0 0 0 0 0 0 0 0 0 0 0 0 0 0 0 0 0 0 0 0 0 0 0 0 0 0 0 0 0 0 0 0 0 0 0 0 0
0 0 0 0 0 0 0 0 0 0 0 0 0 0 0 0 0 0 0 0 0 0 0 0 0 0 0 0 0 0 0 0 0 0 0 0 0 0 0 0 0 0 0
0 0 0 0 0 0 0 0 0 0 0 0 0 0 0 0 0 0 0 0 0 0 0 0 0 0 0 0 0 0 0 0 0 0 0 0 0 0 0 0 0 0 0
0 0 0 0 0 0 0 0 0 0 0 0 0 0 0 0 0 0 0 0 0 0 0 0 0 0 0 0 0 0 0 0 0 0 0 0 0 0 0 0 0 0 0
0 0 0 0 0 0 0 0 0 0 0 0 0 0 0 0 0 0 0 0 0 0 0 0 0 0 0 0 0 0 0 0 0 0 0 0 0 0 0 0 0 0 0
0 0 0 0 0 0 0 0 0 0 0 0 0 0 0 0 0 0 0 0 0 0 0 0 0 0 0 0 0 0 0 0 0 0 0 0 0 0 0 0 0 0 0
0 0 0 0 0 0 0 0 0 0 0 0 0 0 0 0 0 0 0 0 0 0 0 0 0 0 0 0 0 0 0 0 0 0 0 0 0 0 0 0 0 0 0
0 0 0 0 0 0 0 0 0 0 0 0 0 0 0 0 0 0 0 0 0 0 0 0 0 0 0 0 0 0 0 0 0 0 0 0 0 0 0 0 0 1 2
0 0 0 0 0 0 0 0 0 0 0 0 0 0 0 0 0 0 0 0 0 0 0 0 0 0 0 0 0 0 0 0 0 0 0 0 0 0 0 0 0 0 5
0 0 0 0 0 0 0 0 0 0 0 0 0 0 0 0 0 0 0 0 0 0 0 0 0 0 0 0 0 0 0 0 0 0 0 0 4 3 5 2 5 10 14
0 0 0 0 0 0 0 0 0 0 0 0 0 0 0 0 0 0 0 0 0 0 0 0 0 0 0 0 0 0 1 5 4 5 6 6 3 11 9 10 13 8 9
0 0 0 0 0 0 0 0 0 0 0 0 0 0 0 0 0 0 0 0 0 0 0 0 0 0 0 0 0 1 4 5 5 4 1 1 0 2 1 1 2 6 12
0 0 0 0 0 0 0 0 0 0 0 0 0 0 0 0 0 0 0 0 0 0 0 0 0 0 0 0 0 1 3 1 2 3 1 2 5 7 17 7 2 3 2
0 0 0 0 0 0 0 0 0 0 0 0 0 0 0 0 0 0 0 0 0 0 0 0 0 0 0 0 0 1 4 3 4 7 7 9 10 20 33 28 22 16 11
0 0 0 0 0 0 0 0 0 0 0 0 0 0 0 0 0 0 0 0 0 0 0 0 0 0 0 0 1 4 10 11 26 21 20 16 20 28 35 35 29 23 35
0 0 0 0 0 0 0 0 0 0 0 0 0 0 0 0 0 0 0 0 0 0 0 0 0 0 0 0 2 10 21 21 13 22 24 21 36 53 53 44 33 29 39
0 0 0 0 0 0 0 0 0 0 0 0 0 0 0 0 0 0 0 0 0 0 0 0 0 0 0 0 6 11 25 35 27 39 35 63 63 59 34 16 19 20 15
0 0 0 0 0 0 0 0 0 0 0 0 0 0 0 0 0 0 0 0 0 0 0 0 0 0 4 11 6 14 36 34 41 34 34 46 57 48 23 17 1 4 3
0 0 0 0 0 0 0 0 0 0 0 0 0 0 0 0 0 0 0 0 0 0 0 2 12 13 13 10 35 40 35 48 47 64 45 29 33 13 6 1 1 2 0
0 0 0 0 0 0 0 0 0 0 0 0 0 0 0 0 0 0 0 0 0 0 0 3 8 11 24 35 38 41 31 37 45 30 33 24 23 12 16 5 8 7 9
CIN
0 0 0 0 0 0 0 0 0 0 0 0 0 0 0 0 0 0 0 0 0 0 0 0 0 0 0 0 0 0 0 0 0 0 0 0 0 0 0 0 0 0 0
0 0 0 0 0 0 0 0 0 0 0 0 0 0 0 0 0 0 0 0 0 0 0 0 0 0 0 0 0 0 0 0 0 0 0 0 0 0 0 0 0 0 0
0 0 0 0 0 0 0 0 0 0 0 0 0 0 0 0 0 0 0 0 0 0 0 0 0 0 0 0 0 0 0 0 0 0 0 0 0 0 0 0 0 0 0
0 0 0 0 0 0 0 0 0 0 0 0 0 0 0 0 0 0 0 0 0 0 0 0 0 0 0 0 0 0 0 0 0 0 0 0 0 0 0 0 0 0 0
0 0 0 0 0 0 0 0 0 0 0 0 0 0 0 0 0 0 0 0 0 0 0 0 0 0 0 0 0 0 0 0 0 0 0 0 0 0 0 0 0 0 0
0 0 0 0 0 0 0 0 0 0 0 0 0 0 0 0 0 0 0 0 0 0 0 0 0 0 0 0 0 0 0 0 0 0 0 0 0 0 0 0 0 0 0
0 0 0 0 0 0 0 0 0 0 0 0 0 0 0 0 0 0 0 0 0 0 0 0 0 0 0 0 0 0 0 0 0 0 0 0 0 0 0 0 0 0 0
0 0 0 0 0 0 0 0 0 0 0 0 0 0 0 0 0 0 0 0 0 0 0 0 0 0 0 0 0 0 0 0 0 0 0 0 0 0 0 0 0 0 0
0 0 0 0 0 0 0 0 0 0 0 0 0 0 0 0 0 0 0 0 0 0 0 0 0 0 0 0 0 0 0 0 0 0 0 0 0 0 0 0 0 0 0
0 0 0 0 0 0 0 0 0 0 0 0 0 0 0 0 0 0 0 0 0 0 0 0 0 0 0 0 0 0 0 0 0 0 0 0 0 0 0 0 0 0 0
0 0 0 0 0 0 0 0 0 0 0 0 0 0 0 0 0 0 0 0 0 0 0 0 0 0 0 0 0 0 0 0 0 0 0 0 0 0 0 0 0 0 0
0 0 0 0 0 0 0 0 0 0 0 0 0 0 0 0 0 0 0 0 0 0 0 0 0 0 0 0 0 0 0 0 0 0 0 0 0 0 0 0 0 0 0
0 0 0 0 0 0 0 0 0 0 0 0 0 0 0 0 0 0 0 0 0 0 0 0 0 0 0 0 0 0 0 0 0 0 0 0 0 0 0 0 0 0 0
0 0 0 0 0 0 0 0 0 0 0 0 0 0 0 0 0 0 0 0 0 0 0 0 0 0 0 0 0 0 0 0 0 0 0 0 0 0 0 0 0 0 0
0 0 0 0 0 0 0 0 0 0 0 0 0 0 0 0 0 0 0 0 0 0 0 0 0 0 0 0 0 0 0 0 0 0 0 0 0 0 0 0 0 0 0
0 0 0 0 0 0 0 0 0 0 0 0 0 0 0 0 0 0 0 0 0 0 0 0 0 0 0 0 0 0 0 0 0 0 0 0 0 0 0 0 0 0 0
0 0 0 0 0 0 0 0 0 0 0 0 0 0 0 0 0 0 0 0 0 0 0 0 0 0 0 0 0 0 0 0 0 0 0 0 0 0 0 0 0 0 0
0 0 0 0 0 0 0 0 0 0 0 0 0 0 0 0 0 0 0 0 0 0 0 0 0 0 0 0 0 0 0 0 0 0 0 0 0 0 0 0 0 0 0
0 0 0 0 0 0 0 0 0 0 0 0 0 0 0 0 0 0 0 0 0 0 0 0 0 0 0 0 0 0 0 0 0 0 0 0 0 0 0 0 -1 -1 -1
0 0 0 0 0 0 0 0 0 0 0 0 0 0 0 0 0 0 0 0 0 0 0 0 0 0 0 0 0 0 0 0 0 0 0 0 0 0 0 0 0 0 0
0 0 0 0 0 0 0 0 0 0 0 0 0 0 0 0 0 0 0 0 0 0 0 0 0 0 0 0 0 0 0 0 0 0 0 0 0 0 0 0 0 0 0
0 0 0 0 0 0 0 0 0 0 0 0 0 0 0 0 0 0 0 0 0 0 0 0 0 0 0 0 0 0 0 0 0 0 0 0 0 0 0 0 0 0 -3
0 0 0 0 0 0 0 0 0 0 0 0 0 0 0 0 0 0 0 0 0 0 0 0 0 0 0 0 0 0 0 0 0 0 0 0 0 0 0 0 0 0 0
0 0 0 0 0 0 0 0 0 0 0 0 0 0 0 0 0 0 0 0 0 0 0 0 0 0 0 0 0 0 0 0 0 0 0 0 0 0 0 0 0 0 0
0 0 0 0 0 0 0 0 0 0 0 0 0 0 0 0 0 0 0 0 0 0 0 0 0 0 0 0 0 0 0 0 0 0 0 0 0 0 -1 0 -1 0 0
0 0 0 0 0 0 0 0 0 0 0 0 0 0 0 0 0 0 0 0 0 0 0 0 0 0 0 0 0 0 0 0 0 0 0 0 0 0 0 0 0 0 0
Wind_Speed
4 3 3 6 8 8 8 7 6 5 3 3 3 3 3 2 3 3 5 5 4 4 3 2 3 3 4 4 5 5 6 4 6 4 2 3 3 4 3 2 2 1 2
6 4 4 6 8 8 7 6 5 4 3 3 2 3 3 3 4 3 5 5 5 5 4 3 3 4 4 4 4 4 4 2 4 4 3 3 4 5 5 4 4 5 3
6 5 5 6 7 7 6 4 3 4 5 5 3 4 4 4 4 5 4 4 5 5 6 5 4 4 4 4 4 4 5 4 2 4 4 3 2 5 2 5 5 6 5
4 3 6 7 7 6 4 2 4 5 5 5 6 7 6 6 4 4 3 4 5 5 6 6 6 5 4 5 5 4 4 4 5 3 3 4 4 3 5 3 4 5 7
4 6 7 7 6 4 2 1 4 5 5 6 7 6 7 6 6 5 6 5 5 6 6 7 6 6 5 6 6 6 5 4 5 4 4 4 4 6 6 6 5 5 6
7 7 6 6 6 5 4 3 4 3 4 4 5 7 8 8 7 6 5 4 4 4 5 6 6 6 7 7 6 7 8 7 7 6 6 6 5 4 6 7 9 9 7
8 8 7 6 5 4 4 3 4 5 5 4 3 4 6 7 7 6 5 5 4 4 5 5 6 6 7 7 8 8 9 8 8 9 8 7 8 7 7 8 9 8 6
8 8 7 6 5 3 4 3 4 5 6 5 5 4 4 3 3 3 3 3 4 5 7 6 6 7 8 8 8 7 8 9 9 12 11 9 8 8 8 9 7 9 9
9 9 7 6 5 3 3 3 3 4 5 5 4 5 5 5 4 4 4 3 4 5 7 7 7 7 8 9 9 8 10 10 11 11 12 11 9 9 9 9 9 9 9
10 8 7 5 4 3 2 2 3 4 4 4 4 4 5 6 5 5 5 6 5 6 7 7 8 8 8 8 9 9 10 11 10 9 13 13 10 11 10 10 10 11 12
10 9 7 5 4 4 3 4 4 4 5 5 5 5 5 5 5 5 5 6 7 7 8 8 8 9 9 9 9 10 11 12 12 12 13 15 14 11 10 9 11 11 11
9 9 8 7 6 5 5 5 4 5 4 3 4 4 4 5 5 5 6 7 7 7 8 9 9 10 10 10 10 11 11 13 14 14 14 15 11 15 14 11 15 13 14
11 11 9 8 7 6 6 5 4 4 3 2 2 3 4 4 5 6 7 7 8 8 8 9 10 11 11 11 12 12 13 13 13 14 15 15 14 15 12 14 13 12 12
12 11 10 9 8 8 7 6 5 3 2 2 1 3 4 5 6 6 7 8 9 9 9 10 10 11 12 12 12 12 13 14 13 14 14 15 15 16 16 14 15 13 13
14 14 13 11 10 9 7 5 4 3 2 1 1 3 4 5 6 7 7 8 8 9 10 10 11 11 11 9 12 14 15 15 15 15 15 15 16 19 20 13 15 15 13
14 12 10 10 10 10 8 6 5 4 2 1 2 3 4 5 6 7 8 8 8 9 10 10 11 12 10 17 20 18 14 15 16 15 15 16 16 18 24 26 28 23 16
15 15 14 13 12 11 8 7 5 3 2 2 3 4 5 6 7 8 9 9 10 10 11 11 12 13 14 19 21 22 14 15 15 16 15 14 12 16 17 21 25 25 28
13 15 12 11 11 9 7 4 3 3 3 4 4 5 6 7 8 9 10 10 9 11 11 12 13 13 12 20 21 22 16 14 15 14 14 15 15 15 17 17 18 18 18
11 12 11 11 10 8 6 5 4 3 4 5 5 6 6 8 9 10 11 11 10 11 12 12 14 15 15 20 21 18 13 13 15 14 15 14 16 20 24 18 17 16 17
7 9 10 9 9 7 6 5 4 4 5 6 7 7 8 9 10 11 12 10 11 12 10 13 14 18 17 20 21 17 11 13 13 14 15 19 18 25 26 18 16 16 16
8 9 10 9 8 7 5 5 4 5 6 7 8 8 9 10 11 11 11 11 12 12 13 13 13 15 16 17 21 21 12 10 11 11 11 11 23 25 27 27 16 16 20
7 8 8 7 6 5 4 4 5 6 6 8 9 9 10 8 8 11 10 10 12 12 13 14 12 11 14 19 19 22 23 21 13 14 12 14 24 27 29 25 26 28 25
7 6 5 5 4 3 3 5 6 7 9 9 10 10 10 10 9 10 10 9 11 10 11 10 11 11 11 11 20 23 23 23 15 12 19 28 27 28 22 24 23 26 9
6 5 5 3 2 3 4 7 9 9 9 10 11 10 10 11 10 7 8 8 10 10 10 10 11 11 11 10 11 11 11 18 15 16 14 18 23 26 21 19 13 9 6
5 4 3 1 3 4 7 9 9 9 9 10 10 10 8 9 9 9 9 9 12 11 11 11 12 13 14 13 21 21 15 14 16 22 12 10 10 11 10 7 8 7 6
4 2 1 3 5 8 10 10 9 8 9 10 8 8 8 8 8 8 10 14 17 21 21 23 19 13 23 27 26 27 28 29 29 13 10 10 11 11 10 7 7 7 9
Wind_Direction
162 183 205 193 184 183 184 186 188 188 216 242 258 247 253 233 239 237 248 246 248 245 273 311 315 331 339 348 350 340 340 354 351 299 291 239 231 237 238 256 262 270 302
199 171 166 176 186 181 186 185 196 221 239 252 248 272 272 264 279 256 242 241 244 245 258 276 300 309 311 324 336 343 333 321 0 334 293 295 193 225 242 242 245 256 262
219 186 176 176 174 177 179 192 228 260 255 240 241 240 243 243 241 225 232 221 238 242 254 255 265 278 282 295 308 313 329 329 325 335 314 294 309 328 174 232 243 253 268
190 166 164 164 165 152 155 221 265 266 254 234 243 248 267 276 273 273 267 259 249 251 247 252 254 263 271 278 291 294 295 290 304 292 247 286 300 310 306 207 253 267 266
158 145 146 142 135 130 105 332 291 281 271 253 248 262 262 270 276 272 271 263 259 250 251 251 256 257 261 269 272 274 263 266 277 274 282 257 257 252 260 287 278 257 257
147 133 126 138 122 104 82 51 8 10 324 277 260 259 270 278 277 272 272 274 283 281 263 257 258 263 266 266 265 260 257 258 257 261 255 253 258 249 250 267 283 292 287
155 153 152 141 123 96 63 38 20 31 8 345 314 298 292 292 288 291 286 296 298 303 297 283 265 262 263 265 262 258 257 255 252 256 258 252 253 257 258 266 274 278 296
163 158 148 138 124 94 50 34 24 25 19 21 19 9 360 330 319 315 301 299 307 310 309 297 291 284 278 271 266 263 260 261 254 255 253 256 252 246 245 247 268 273 262
171 164 154 144 131 105 65 31 26 36 31 37 44 48 38 31 24 15 360 343 329 320 310 310 303 296 287 279 273 265 263 258 257 256 255 253 253 248 247 244 244 252 271
178 170 163 157 149 137 116 89 62 55 48 60 57 53 47 41 34 34 22 3 350 334 326 328 325 316 305 293 284 277 272 266 264 260 258 257 253 250 243 240 240 237 248
187 177 171 165 162 152 142 121 107 93 82 73 67 64 53 39 31 22 8 357 337 335 329 329 321 313 309 306 296 287 285 277 273 267 262 261 259 255 248 241 238 239 236
189 182 178 179 177 171 151 138 128 113 93 83 79 62 43 28 20 10 357 348 339 333 334 330 322 317 314 310 303 296 291 287 282 279 272 266 263 260 253 248 242 237 237
190 188 187 190 185 171 164 159 160 136 112 100 77 55 32 14 4 356 348 342 337 334 332 326 321 319 316 311 305 302 297 290 286 284 281 278 272 265 257 252 253 250 246
198 194 194 192 183 179 178 177 170 160 135 117 58 20 10 2 354 346 340 336 336 328 328 325 318 314 312 307 304 304 300 295 293 290 285 284 280 276 276 271 266 257 252
203 200 199 192 186 183 182 180 178 170 164 177 347 6 353 347 339 336 332 328 325 322 320 315 312 309 303 298 309 309 306 301 298 292 285 280 278 276 270 272 267 265 256
216 209 204 195 189 187 187 180 188 186 208 231 338 337 331 330 325 322 322 319 317 315 315 309 307 307 301 300 303 307 303 300 296 293 292 292 289 279 277 273 270 263 265
217 204 198 194 192 188 184 192 194 194 224 282 299 313 318 316 318 317 317 317 315 312 305 303 304 302 301 300 305 307 302 299 292 293 295 295 296 300 293 289 283 274 266
222 206 195 189 186 179 183 185 206 225 259 277 291 300 307 310 315 313 309 308 306 304 303 302 301 299 295 298 303 303 296 291 292 290 291 293 296 296 299 297 291 285 279
231 203 185 179 171 175 171 191 210 237 268 285 293 294 297 302 305 303 304 304 302 301 300 299 298 296 294 297 298 303 300 292 290 292 289 290 290 292 294 291 286 280 271
186 171 163 160 166 168 176 199 223 253 280 289 290 295 300 296 297 298 296 298 294 295 299 298 297 293 293 294 297 295 299 297 299 295 290 286 285 287 290 295 291 283 274
161 153 160 168 171 166 180 218 246 266 284 289 297 299 294 289 287 289 288 295 299 300 300 299 301 300 301 302 301 301 299 299 296 295 293 288 289 291 290 292 286 283 287
155 164 163 162 160 168 195 241 258 276 290 301 293 289 288 285 283 288 295 300 300 299 300 304 308 308 308 302 303 304 295 302 299 293 290 290 289 292 292 292 293 292 292
160 160 157 154 174 188 224 281 283 317 299 289 286 285 286 285 288 294 297 301 297 300 302 303 306 304 303 301 304 303 298 293 290 283 289 294 292 290 294 288 281 293 284
154 147 151 165 215 244 269 265 296 293 283 281 280 283 288 293 294 291 287 289 293 299 299 298 299 300 299 300 303 295 297 294 295 294 285 289 292 294 289 294 287 287 264
134 143 152 202 270 282 308 296 290 284 279 278 278 281 285 289 290 285 285 287 286 287 294 292 295 298 294 294 301 305 303 301 299 302 298 295 297 297 292 268 276 277 265
143 144 25 295 321 287 281 287 286 278 277 279 283 284 286 285 286 289 295 285 280 288 289 289 285 282 279 290 295 296 296 299 299 295 296 297 301 298 290 289 281 273 268